Tracking 30417 objects as of 16-May-2025
HD Live streaming from Space Station
objects crossing your sky now

THORAD AGENA D DEB

Track THORAD AGENA D DEB now!
10-day predictions


NORAD ID: 19422
Int'l Code: 1970-025QA
Perigee: 1,011.6 km
Apogee: 1,027.7 km
Inclination: 100.1 °
Period: 105.4 minutes
Semi major axis: 7390 km
RCS: 0.0088 m2 (small)
Launch date: April 8, 1970
Source: United States (US)
Launch site: AIR FORCE WESTERN TEST RANGE (AFWTR)

Note: This is SATELLITE DEBRIS
Your satellite tracking list
Your tracking list is empty




NASA's NSSDC Master Catalog

Two Line Element Set (TLE):
1 19422U 70025QA  25136.06325837  .00000337  00000-0  46531-3 0  9998
2 19422 100.1220 180.9054 0010909 203.4529 187.6666 13.66395062992435
Source of the keplerian elements: AFSPC